Location: Jackson
(42.2460°N, 84.4010°W)
Time: 19:03:29
(UTC-04:00)

Courier 1B Rocket - Pass Details

Date: 13 February 2026
Orbit: 920 x 1201 km, 28.2° (Epoch: 13 March)

Event Time Altitude Azimuth Distance (km) Brightness Sun altitude
Rises 00:11:22 0° 248° (WSW) 3,738 - -59.8°
Reaches altitude 10° 00:14:28 10° 236° (SW) 2,834 - -60.0°
Maximum altitude 00:19:58 25° 183° (S) 2,007 - -60.3°
Drops below altitude 10° 00:25:46 10° 131° (SE) 3,000 - -60.6°
Sets 00:29:09 0° 119° (ESE) 4,002 - -60.7°
